Weather History for Buffalo, WY

Change the Weather History Date:

Monday, October 15, 2012

  Actual Average Record
Temperature  
Mean Temperature 54 °F 46 °F  
Max Temperature 64 °F 58 °F 80 °F (2005)
Min Temperature 45 °F 35 °F 23 °F (2001)
Degree Days  
Heating Degree Days 10 19  
Month to date heating degree days 250  
Since 1 July heating degree days 564  
Cooling Degree Days 0 0  
Month to date cooling degree days 0  
Year to date cooling degree days 491  
Growing Degree Days 4 (Base 50)    
Moisture  
Dew Point 30 °F    
Average Humidity 42    
Maximum Humidity 82    
Minimum Humidity 20    
Precipitation  
Precipitation 0.01 in 0.03 in 0.38 in (2004)
Month to date precipitation 0.60  
Year to date precipitation 12.18  
Sea Level Pressure  
Sea Level Pressure 29.81 in    
Wind  
Wind Speed 6 mph (WNW)    
Max Wind Speed 18 mph    
Max Gust Speed 25 mph    
Visibility 10 miles    
Events Rain    
T = Trace of Precipitation, MM = Missing Value Source: NWS Daily Summary

Daily Weather History Graph

Daily Weather History Graph

Search for Another Location

Airport:

Trip Planner

Search our weather history database for the weather conditions in past years. The results will help you decide how hot, cold, wet, or windy it might be!

Date:

Astronomy

Oct. 15, 2012 Rise Set
Actual Time 7:22 AM MDT 6:21 PM MDT
Civil Twilight 6:53 AM MDT 6:50 PM MDT
Nautical Twilight 6:19 AM MDT 7:24 PM MDT
Astronomical Twilight 5:45 AM MDT 7:58 PM MDT
Moon 7:38 AM MDT (10/15) 6:19 PM MDT (10/15)
Length of Visible Light 11h 57m
Length of Day
10h 59m
Waxing Crescent, 0% of the Moon is Illuminated
Oct 15
Waxing Crescent
Oct 21
First Quarter
Oct 29
Full
Nov 6
Last Quarter
Nov 13
New

Hourly Weather History & Observations

Time (MDT) Temp. Windchill Dew Point Humidity Pressure Visibility Wind Dir Wind Speed Gust Speed Precip Events Conditions
12:53 AM 51.1 °F - 24.1 °F 35% 29.91 in 10.0 mi WSW 8.1 mph - N/A   Clear
1:53 AM 54.0 °F - 23.0 °F 30% 29.86 in 10.0 mi West 6.9 mph - N/A   Clear
2:53 AM 53.1 °F - 21.9 °F 30% 29.85 in 10.0 mi NW 5.8 mph - N/A   Clear
3:53 AM 54.0 °F - 21.9 °F 29% 29.82 in 10.0 mi NW 6.9 mph - N/A   Clear
4:53 AM 53.1 °F - 23.0 °F 31% 29.83 in 10.0 mi NNW 5.8 mph - N/A   Clear
5:53 AM 55.9 °F - 23.0 °F 28% 29.81 in 10.0 mi WSW 6.9 mph - N/A   Clear
6:53 AM 54.0 °F - 23.0 °F 30% 29.81 in 10.0 mi SSE 5.8 mph - N/A   Clear
7:53 AM 55.9 °F - 21.0 °F 26% 29.83 in 10.0 mi Calm Calm - N/A   Clear
8:53 AM 59.0 °F - 24.1 °F 26% 29.81 in 10.0 mi Calm Calm - N/A   Clear
9:53 AM 60.1 °F - 27.0 °F 28% 29.80 in 10.0 mi WSW 4.6 mph - N/A   Clear
10:53 AM 62.1 °F - 27.0 °F 26% 29.82 in 10.0 mi WSW 3.5 mph - N/A   Clear
11:53 AM 59.0 °F - 30.0 °F 33% 29.82 in 10.0 mi ESE 3.5 mph - N/A   Clear
12:53 PM 61.0 °F - 30.9 °F 32% 29.79 in 10.0 mi WSW 4.6 mph - N/A   Clear
1:53 PM 63.0 °F - 28.9 °F 28% 29.73 in 10.0 mi Calm Calm - N/A   Scattered Clouds
2:53 PM 64.9 °F - 23.0 °F 20% 29.72 in 10.0 mi Calm Calm - N/A   Mostly Cloudy
3:53 PM 63.0 °F - 25.0 °F 24% 29.73 in 10.0 mi Calm Calm - N/A   Overcast
4:53 PM 59.0 °F - 30.0 °F 33% 29.76 in 10.0 mi NNE 18.4 mph 25.3 mph 0.00 in Rain Light Rain
5:53 PM 51.1 °F - 44.1 °F 77% 29.82 in 10.0 mi North 13.8 mph 24.2 mph 0.00 in Rain Light Rain
6:53 PM 52.0 °F - 42.1 °F 69% 29.84 in 10.0 mi WNW 11.5 mph - 0.00 in   Overcast
7:53 PM 48.0 °F - 42.1 °F 80% 29.83 in 10.0 mi NNW 5.8 mph - 0.01 in   Scattered Clouds
8:53 PM 45.0 °F 41.2 °F 39.9 °F 82% 29.83 in 10.0 mi West 6.9 mph - N/A   Clear
9:53 PM 45.0 °F 41.8 °F 39.0 °F 80% 29.81 in 10.0 mi SW 5.8 mph - N/A   Mostly Cloudy
10:53 PM 46.0 °F - 37.9 °F 73% 29.81 in 10.0 mi Calm Calm - N/A   Mostly Cloudy
11:53 PM 48.0 °F - 37.9 °F 68% 29.83 in 10.0 mi NNW 10.4 mph - N/A   Scattered Clouds